Home > Weather > Wilmington > Past weeks

Flag for USA Weather for the Past 2 Weeks in Wilmington, Delaware, USA

Now
52 °F

Fog.


Feels Like: 50 °F
Forecast: 54 / 73 °F
Wind: 6 mph from Northeast

Location: New Castle County Airport

Current Time: May 1, 2016 at 10:37:01 PM

Latest Report: May 1, 2016 at 9:51 PM


Visibility: 6 mi

Pressure: 30.06 "Hg

Humidity: 97%

Dew Point: 51 °F

Location of WilmingtonLocation

Historic Weather in Wilmington — Graph

°F

Wilmington Temperature Yesterday

Maximum temperature yesterday: 60 °F (at 2:51 PM)
Minimum temperature yesterday: 47 °F (at 1:51 AM)
Average temperature yesterday: 53 °F

High & Low Weather Summary for the Past Weeks

 TemperatureHumidityPressure
High85 °F (Apr 26, 3:51 PM)97% (Apr 26, 6:51 AM)30.48 "Hg (Apr 26, 6:51 AM)
Low37 °F (Apr 17, 6:51 AM)18% (Apr 18, 3:51 PM)29.61 "Hg (Apr 26, 4:51 PM)
Average57 °F62%30.06 "Hg
* Reported Apr 16 8:51 PM — May 1 8:51 PM, Wilmington, Weather by CustomWeather, © 2016

Note: Actual official high and low records may vary slightly from our data, if they occured in-between our weather recording intervals... More about our weather records

Advertising

Wilmington Weather History for the Previous 24 Hours

Scroll right to see more
 ConditionsComfort  
Time TempWeatherWind HumidityBarometerVisibility
8:51 PM
Sun, May 1
53 °FLow clouds.7 mph93%30.06 "Hg10 mi
7:51 PM53 °FLow clouds.6 mph93%30.06 "Hg10 mi
6:51 PM53 °FLow clouds.7 mph93%30.05 "Hg10 mi
5:51 PM53 °FMostly cloudy.5 mph93%30.06 "Hg8 mi
4:51 PM53 °FFog.6 mph93%30.06 "Hg4 mi
3:51 PM52 °FFog.7 mph93%30.09 "Hg6 mi
2:51 PM52 °FLight rain. Fog.10 mph89%30.10 "Hg2 mi
1:58 PM51 °FOvercast.12 mph89%30.12 "Hg10 mi
12:51 PM51 °FLight rain. Fog.9 mph89%30.11 "Hg6 mi
11:51 AM50 °FLight rain. Mostly cloudy.9 mph93%30.14 "Hg8 mi
10:51 AM48 °FLight rain. Mostly cloudy.8 mph89%30.16 "Hg7 mi
9:51 AM48 °FLight rain. Fog.7 mph89%30.18 "Hg5 mi
8:51 AM47 °FLight rain. Overcast.9 mph86%30.18 "Hg8 mi
7:51 AM47 °FLight rain. Fog.8 mph86%30.19 "Hg6 mi
6:51 AM48 °FLight rain. Fog.6 mph86%30.18 "Hg5 mi
5:51 AM48 °FLight rain. Overcast.5 mph86%30.18 "Hg8 mi
4:51 AM49 °FOvercast.5 mph80%30.18 "Hg10 mi
3:51 AM49 °FLight rain. Mostly cloudy.5 mph77%30.17 "Hg10 mi
2:51 AM49 °FLight rain. Overcast.6 mph74%30.18 "Hg10 mi
1:51 AM50 °FOvercast.6 mph66%30.21 "Hg10 mi
12:51 AM50 °FOvercast.7 mph63%30.22 "Hg10 mi
11:51 PM
Sat, Apr 30
50 °FLight rain. Mostly cloudy.5 mph68%30.23 "Hg10 mi
10:51 PM52 °FMostly cloudy.8 mph59%30.23 "Hg10 mi
Weather by CustomWeather, © 2016

See weather overviewHow to use our weather pages